Weather History for Poughkeepsie, NY

Change the Weather History Date:

Sunday, September 25, 2011

  Actual Average Record
Temperature  
Mean Temperature 73 °F 59 °F  
Max Temperature 80 °F 71 °F 89 °F (1970)
Min Temperature 65 °F 47 °F 29 °F (1963)
Degree Days  
Heating Degree Days 0 7  
Month to date heating degree days 57 86  
Since 1 July heating degree days 58 103  
Cooling Degree Days 8 0  
Month to date cooling degree days 100 61  
Year to date cooling degree days 888 665  
Growing Degree Days 22 (Base 50)    
Moisture  
Dew Point 65 °F    
Average Humidity 87    
Maximum Humidity 93    
Minimum Humidity 62    
Precipitation  
Precipitation 0.00 in 0.15 in 2.40 in (1991)
Month to date precipitation 6.95 3.51  
Year to date precipitation 47.21 34.29  
Sea Level Pressure  
Sea Level Pressure 30.06 in    
Wind  
Wind Speed 1 mph (NNW)    
Max Wind Speed 8 mph    
Max Gust Speed 12 mph    
Visibility 9 miles    
Events      
T = Trace of Precipitation, MM = Missing Value Source: NWS Daily Summary

Daily Weather History Graph

Daily Weather History Graph

Search for Another Location

Airport:

Trip Planner

Search our weather history database for the weather conditions in past years. The results will help you decide how hot, cold, wet, or windy it might be!

Date:

Astronomy

Sep. 25, 2011 Rise Set
Actual Time 6:45 AM EDT 6:48 PM EDT
Civil Twilight 6:18 AM EDT 7:15 PM EDT
Nautical Twilight 5:45 AM EDT 7:48 PM EDT
Astronomical Twilight 5:12 AM EDT 8:20 PM EDT
Moon 4:28 AM EDT (9/25) 5:28 PM EDT (9/25)
Length of Visible Light 12h 57m
Length of Day
12h 02m
Waning Crescent, 5% of the Moon is Illuminated
Sep 25
Waning Crescent
Sep 27
New
Oct 3
First Quarter
Oct 11
Full
Oct 19
Last Quarter

Hourly Weather History & Observations

Time (EDT) Temp. Dew Point Humidity Pressure Visibility Wind Dir Wind Speed Gust Speed Precip Events Conditions
12:12 AM 66.2 °F 64.4 °F 94% 30.08 in 1.2 mi Calm Calm - N/A   Mostly Cloudy
12:16 AM 66.2 °F 64.4 °F 94% 30.08 in 3.0 mi Calm Calm - N/A   Mostly Cloudy
12:29 AM 66.2 °F 66.2 °F 100% 30.07 in 9.0 mi Calm Calm - N/A   Overcast
12:53 AM 68.0 °F 66.9 °F 96% 30.06 in 9.0 mi Calm Calm - N/A   Overcast
1:13 AM 69.8 °F 66.2 °F 88% 30.08 in 10.0 mi Calm Calm - N/A   Overcast
1:53 AM 68.0 °F 66.0 °F 93% 30.07 in 10.0 mi Calm Calm - N/A   Overcast
2:02 AM 68.0 °F 66.2 °F 94% 30.08 in 10.0 mi Calm Calm - N/A   Overcast
2:53 AM 66.9 °F 64.9 °F 93% 30.07 in 10.0 mi Calm Calm - N/A   Scattered Clouds
3:53 AM 66.9 °F 64.9 °F 93% 30.07 in 10.0 mi Calm Calm - N/A   Overcast
4:53 AM 66.0 °F 64.0 °F 93% 30.08 in 8.0 mi Calm Calm - N/A   Overcast
5:09 AM 66.2 °F 64.4 °F 94% 30.09 in 9.0 mi Calm Calm - N/A   Overcast
5:34 AM 66.2 °F 64.4 °F 94% 30.10 in 10.0 mi Calm Calm - N/A   Overcast
5:53 AM 66.0 °F 64.0 °F 93% 30.09 in 10.0 mi Calm Calm - N/A   Overcast
6:53 AM 64.9 °F 63.0 °F 93% 30.09 in 10.0 mi Calm Calm - N/A   Overcast
7:53 AM 66.0 °F 63.0 °F 90% 30.11 in 10.0 mi NW 3.5 mph - N/A   Overcast
8:53 AM 66.2 °F 62.6 °F 88% 30.13 in 10.0 mi Calm Calm - N/A   Scattered Clouds
9:53 AM 68.0 °F 62.1 °F 81% 30.12 in 10.0 mi Calm Calm - N/A   Clear
10:53 AM 73.0 °F 64.0 °F 73% 30.10 in 10.0 mi NNE 3.5 mph - N/A   Clear
11:53 AM 75.9 °F 64.0 °F 67% 30.09 in 10.0 mi North 4.6 mph - N/A   Clear
12:53 PM 79.0 °F 64.9 °F 62% 30.07 in 10.0 mi Variable 3.5 mph - N/A   Clear
1:53 PM 79.0 °F 64.9 °F 62% 30.05 in 10.0 mi WNW 4.6 mph - N/A   Partly Cloudy
3:53 PM 77.0 °F 64.9 °F 66% 30.03 in 10.0 mi WSW 3.5 mph - N/A   Clear
4:53 PM 77.0 °F 66.2 °F 69% 30.03 in 10.0 mi Calm Calm - N/A   Clear
5:53 PM 75.0 °F 66.9 °F 76% 30.02 in 10.0 mi Calm Calm - N/A   Clear
6:53 PM 73.0 °F 68.0 °F 84% 30.01 in 10.0 mi Calm Calm - N/A   Clear
7:53 PM 71.1 °F 68.0 °F 90% 30.02 in 10.0 mi Calm Calm - N/A   Clear
8:53 PM 69.1 °F 66.9 °F 93% 30.02 in 7.0 mi Calm Calm - N/A   Clear
9:53 PM 68.0 °F 66.2 °F 94% 30.01 in 4.0 mi Calm Calm - N/A   Clear
10:53 PM 66.9 °F 64.9 °F 93% 30.00 in 6.0 mi Calm Calm - N/A   Clear
11:21 PM 66.2 °F 64.4 °F 94% 30.02 in 10.0 mi Calm Calm - N/A   Partly Cloudy
11:40 PM 66.2 °F 64.4 °F 94% 30.02 in 6.0 mi Calm Calm - N/A   Mostly Cloudy
11:53 PM 66.0 °F 64.9 °F 96% 30.01 in 6.0 mi Calm Calm - N/A   Overcast